{"data":{"norad_id":66439,"epoch":"2026-05-25T04:15:32.869728Z","epoch_age_seconds":56843,"freshness":"FRESH","line1":"1 66439U 25259T   26145.17746377  .00013593  00000+0  50244-3 0  9999","line2":"2 66439  42.9989 201.9880 0001337 278.7647  81.3053 15.27589078 31190","mean_motion":15.27589078,"eccentricity":0.0001337,"inclination_deg":42.9989,"raan_deg":201.988,"arg_perigee_deg":278.7647,"mean_anomaly_deg":81.3053,"bstar":0.00050244,"rev_number":3119,"period_min":94.266188514867,"perigee_km":482.10457642976,"apogee_km":483.93925032319,"semimajor_km":6861.1589133765,"source":"CELESTRAK","updated_at":"2026-05-25T13:38:21.210742Z"}}